Weather Roundup
Issued by NWS

Home | Current Version | Previous Version | Graphics & Text | Print | Product List | Glossary Off
Versions: 1 2 3 4 5 6 7 8 9 10 11 12 13 14 15 16 17 18 19 20 21 22 23 24 25 26 27 28 29 30 31 32 33 34 35 36 37 38 39 40 41 42 43 44 45 46 47 48 49 50

000
NZUS93 KARX 191859
HRRWXR

CURRENT HOURLY OBSERVATIONS ACROSS
MUCH OF THE UPPER MISSISSIPPI VALLEY
NATIONAL WEATHER SERVICE LA CROSSE WI
200 PM CDT SAT APR 19 2014


...SOUTHEAST MINNESOTA...


CITY           SKY/WX    TMP DP  RH WIND       PRES   REMARKS
ROCHESTER      CLOUDY    62  40  44 S25G33    30.09F
ROCHESTER/MAYO CLOUDY    62  35  36 SE17G28   30.08F
WINONA           N/A    N/A N/A N/A MISG        N/A
AUSTIN         PTSUNNY   64  36  34 S17G24    30.06F
ALBERT LEA     MOSUNNY   66  43  42 S17G28    30.04F
DODGE CENTER   PTSUNNY   63  37  39 S24G32    30.06F
PRESTON        MOSUNNY   65  38  38 S21G28    30.11F
OWATONNA       PTSUNNY   64  43  45 S18G28    30.05R
FARIBAULT      MOSUNNY   68  39  34 S18G24    30.04F
$$

...ELSEWHERE IN MINNESOTA...


CITY           SKY/WX    TMP DP  RH WIND       PRES   REMARKS
MINNEAPOLIS    PTSUNNY   61  41  47 S20G26    30.02F
INTNL FALLS    PTSUNNY   46  34  62 S10G23    29.86F
DULUTH         LGT RAIN  36  29  75 SE10      30.02F WCI  28
RED WING       CLOUDY    63  37  39 S14G20    30.05F
REDWOOD FALLS  PTSUNNY   71  46  40 SW18      29.96R
MANKATO        CLOUDY    70  43  37 S24       30.00F
WORTHINGTON    MOSUNNY   72  45  37 SW22      30.00S
FAIRMONT       CLOUDY    73  43  33 SW24G31   30.00S
$$

...SOUTHWEST WISCONSIN...


CITY           SKY/WX    TMP DP  RH WIND       PRES   REMARKS
LA CROSSE      SUNNY     64  34  32 S18       30.15F
PRAIRIE DU CHI MOSUNNY   65  32  29 SE9G17    30.19F
BOSCOBEL       MOSUNNY   67  32  27 S10G22    30.20F
LONE ROCK      NOT AVBL
PLATTEVILLE    MOSUNNY   64  34  33 SE15G22   30.24F
FORT MC COY    SUNNY     64  31  29 S10G22    30.18F
VIROQUA        FAIR      61  34  36 S20G26    30.18F
WIS DELLS      SUNNY     59  32  36 SE14      30.24F
$$

...ELSEWHERE IN WISCONSIN...


CITY           SKY/WX    TMP DP  RH WIND       PRES   REMARKS
MILWAUKEE      PTSUNNY   47  34  60 SE13      30.34F
MADISON        MOSUNNY   61  35  37 S18       30.27F
GREEN BAY      MOSUNNY   51  33  50 SE12      30.31F
EAU CLAIRE     NOT AVBL
BLACK RVR FLS  FAIR      66  31  27 S16       30.16F
MEDFORD        MOSUNNY   51  33  50 SE13G21   30.19F
WAUSAU         SUNNY     55  29  36 S16       30.20F
WIS RAPIDS     MOSUNNY   60  30  32 SE15G23   30.21F
MARSHFIELD     MOSUNNY   58  34  40 S20G25    30.18F
RICE LAKE      CLOUDY    57  32  38 SE18G30   30.08F
$$

...NORTHEAST IOWA...


CITY           SKY/WX    TMP DP  RH WIND       PRES   REMARKS
WATERLOO       MOSUNNY   70  38  31 S20G28    30.11F
DUBUQUE        MOSUNNY   65  35  33 S18G24    30.22F
DECORAH        MOSUNNY   64  37  36 S18G30    30.12F
MASON CITY     MOSUNNY   71  43  36 S24G32    30.06F
CHARLES CITY   PTSUNNY   66  41  39 S21G29    30.10S
OELWEIN        MOSUNNY  N/A N/A N/A S24       30.15F
$$

...ELSEWHERE IN IOWA...


CITY           SKY/WX    TMP DP  RH WIND       PRES   REMARKS
DES MOINES     CLOUDY    75  42  30 SW16G28   30.10F
IOWA CITY      MOSUNNY   71  42  35 S20       30.20F
FORT DODGE     MOSUNNY   75  46  35 S23G36    30.03F
MARSHALLTOWN   PTSUNNY   70  43  37 S20       30.10F
CEDAR RAPIDS   MOSUNNY   70  38  31 S18G29    30.16F
$$

...NORTHERN ILLINOIS...


CITY           SKY/WX    TMP DP  RH WIND       PRES   REMARKS
CHICAGO-OHARE  PTSUNNY   60  35  39 E12       30.31F
DUPAGE         PTSUNNY   65  35  33 E6        30.29F
CHICAGO-MIDWAY PTSUNNY   60  40  47 E10       30.31F
MOLINE         SUNNY     72  33  24 S12G20    30.22F
ROCKFORD       PTSUNNY   65  35  33 SE14      30.29F
STERLING       SUNNY     68  36  30 S10       30.25F
PEORIA         MOSUNNY   71  34  25 SE12      30.26F
$$

NOTE: "FAIR" INDICATES FEW OR NO CLOUDS BELOW 12,000 FEET WITH NO
SIGNIFICANT WEATHER AND/OR OBSTRUCTIONS TO VISIBILITY. WIND
SPEEDS ARE IN MILES-PER-HOUR.



USA.gov is the U.S. government's official web portal to all federal, state and local government web resources and services.